Regional Weather Roundup
Issued by NWS

Home | Current Version | Previous Version | Graphics & Text | Print | Product List | Glossary On
Versions: 1 2 3 4 5 6 7 8 9 10 11 12 13 14 15 16 17 18 19 20 21 22 23 24 25 26 27 28 29 30 31 32 33 34 35 36 37 38 39 40 41 42 43 44 45 46 47 48 49 50
000
ASUS45 KTFX 030410
RWRMT
MONTANA REGIONAL WEATHER ROUNDUP
NATIONAL WEATHER SERVICE GREAT FALLS MT
1000 PM MDT SUN AUG 02 2015

NOTE: "FAIR" INDICATES FEW OR NO CLOUDS BELOW 12000 FEET WITH NO
SIGNIFICANT WEATHER AND/OR OBSTRUCTIONS TO VISIBILITY.

MTZ001>007-043-030500-
WEST OF THE DIVIDE

CITY           SKY/WX    TMP DP  RH WIND       PRES   REMARKS
KALISPELL      CLEAR     69  38  32 CALM      29.87R
MISSOULA       CLEAR     76  33  21 N3        29.89R
BUTTE          PTCLDY    75  30  19 CALM      30.08R
MULLAN PASS    CLEAR     72  20  14 NW6       30.12S
DEER LODGE       N/A     68  34  28 W7        30.05R
EUREKA           N/A     77  30  18 CALM      29.85R
HAMILTON         N/A     72  45  37 S2        29.92R
LIBBY            N/A     75  28  17 SE5       29.86R
PLAINS           N/A     78  38  23 CALM      29.87R
RONAN            N/A     70  46  42 NE2       29.94R
THOMPSON FALLS   N/A     78  31  18 CALM      29.90R
$$

MTZ008-052>055-030500-
SOUTHWEST MONTANA

CITY           SKY/WX    TMP DP  RH WIND       PRES   REMARKS
BOZEMAN        CLEAR     66  44  45 S6        30.00R
DILLON         PTCLDY    68  41  37 CALM      30.01R
W YELLOWSTONE  MOCLDY    59  41  51 CALM      30.16R
THREE FORKS      N/A     62  56  81 CALM      29.99R
TWIN BRIDGES     N/A     77  33  20 NE9       30.00R
$$

MTZ009-010-012-014-046-048-049-054-030500-
EAST SLOPES AND CENTRAL MONTANA

CITY           SKY/WX    TMP DP  RH WIND       PRES   REMARKS
CUT BANK       CLEAR     75  44  33 SE13      29.98R
GREAT FALLS    CLEAR     71  48  43 E8        29.96R
MALMSTROM AFB  CLEAR     67  48  50 SE8       29.96R
HELENA         CLEAR     77  44  30 W7        29.95R
CONRAD           N/A     72  52  49 NE3       30.00S
$$

MTZ011-013-016-021-045-047-050-051-030500-
NORTH CENTRAL MONTANA

CITY           SKY/WX    TMP DP  RH WIND       PRES   REMARKS
HAVRE          CLEAR     71  53  52 E13       29.96R
LEWISTOWN      CLEAR     71  46  40 SE10      30.05R
CHINOOK          N/A     70  54  56 E6        29.98R
FORT BENTON      N/A     79  46  31 E12G18    29.94S
$$

MTZ017>020-022>027-061-062-030500-
NORTHEAST MONTANA

CITY           SKY/WX    TMP DP  RH WIND       PRES   REMARKS
GLASGOW        CLEAR     68  48  48 E10       30.01R
JORDAN           N/A     71  48  43 NE6       30.01R
SIDNEY         CLEAR    N/A N/A N/A N6        30.01R
WOLF POINT     CLEAR     67  47  48 NE7       30.02R
MALTA            N/A     69  55  60 CALM      29.96S
PLENTYWOOD       N/A     63  50  63 N7        30.03R
POPLAR           N/A     63  50  63 N6        30.02S
SCOBEY           N/A     59  45  59 CALM      30.03R
$$

MTZ028>42-056>058-030500-
SOUTHCENTRAL AND SOUTHEAST MONTANA

CITY           SKY/WX    TMP DP  RH WIND       PRES   REMARKS
BAKER          CLEAR     65  47  52 E3        30.05R
BILLINGS       PTCLDY    75  42  30 NE9       30.01R
LIVINGSTON     CLEAR     75  44  33 E13       30.03R
MILES CITY     CLEAR     74  48  39 NE10      30.00R
EKALAKA          N/A     67  44  43 E3        30.04R
FORSYTH          N/A     72  48  43 E6        29.99R
LAUREL           N/A     74  39  28 N1        30.00R
ROUNDUP          N/A     74  39  28 CALM      29.95R
$$

REGIONAL REPORTS...DAKOTAS

CITY           SKY/WX    TMP DP  RH WIND       PRES   REMARKS
WILLISTON      CLEAR     67  48  50 N7        30.01R
MINOT          CLEAR     60  49  66 NW8       29.95R
DICKINSON      CLEAR     57  49  74 SE5       30.01R
CROSBY         FAIR      54  52  94 NW7       30.01R
BISMARCK       CLEAR     68  52  56 N3        29.97R
GRAND FORKS    CLEAR     58  50  75 W8        29.85R
FARGO          CLEAR     61  52  72 W9        29.86R
BUFFALO SD       N/A     66  49  54 NE10      29.98R
RAPID CITY     CLEAR     68  53  58 E3        30.03R
$$

REGIONAL REPORTS...WYOMING/IDAHO/WASHINGTON

CITY           SKY/WX    TMP DP  RH WIND       PRES   REMARKS
GILLETTE         N/A     62  47  57 CALM      30.06R
SHERIDAN       CLEAR     67  46  47 CALM      30.03R
BUFFALO WY     CLEAR     70  42  36 NW6       30.11R
CODY           CLEAR     72  39  30 NW5       30.09R
YELLOWSTONE LA   N/A     55  37  50 CALM      30.28R
IDAHO FALLS    PTCLDY    63  48  58 N5        29.95S
SALMON         PTCLDY    75  43  31 S5        29.89R
BOISE          MOCLDY    89  51  27 CALM      29.77S
SPOKANE        PTCLDY    87  20   8 SW5       29.84R
$$

REGIONAL REPORTS...ALBERTA

CITY           SKY/WX    TMP DP  RH WIND       PRES   REMARKS
EDMONTON       CLEAR     63  55  77 E6        29.94S
CALGARY        MOCLDY    72  52  49 SE12      29.97R
LETHBRIDGE     PTCLDY    66  54  63 E8        29.93R
MEDICINE HAT   CLEAR     73  52  46 E13G18    29.95R
WATERTON GATE    N/A     59  54  82 SW1         N/A
CARDSTON         N/A     66  50  55 SE2         N/A
MILK RIVER       N/A     64  50  59 E9          N/A
$$

REGIONAL REPORTS...SASKATCHEWAN

CITY           SKY/WX    TMP DP  RH WIND       PRES   REMARKS
SWIFT CURRENT  CLEAR     63  54  72 SE7       30.03R
REGINA         PTCLDY    59  55  88 W3        30.00S
SASKATOON      PTCLDY    63  54  72 NE2       30.00R
VAL MARIE        N/A     59  52  77 E7          N/A
ROCKGLEN         N/A     59  50  72 NW1         N/A
$$



USA.gov is the U.S. government's official web portal to all federal, state and local government web resources and services.